Погода в Середейском

Россия / Калужская область     54°03′02″N   35°13′48″E
темп.,
°C
ветер,
м/с
пор.,
м/с
влажн.,
%
обл.,
%
осадки,
мм/ч
давл.,
гПа
погр.,
м
27 июля, вт
вт2700:00+17зюз22860 0.0 102212
03:00+16ююз12904 0.4 102212
06:00+16юз229321 0.9 102237
09:00+22ююз23734 0.9 1021278
12:00+27зюз23455 0.0 10201401
15:00+27зюз234654 0.0 1019921
18:00+28зюз134613 0.0 10181139
21:00+19з2275100 0.3 101853
28 июля, ср
ср2800:00+18ю2280100 0.0 101819
03:00+19юв2276100 0.0 101737
06:00+18юв2479100 0.0 101694
09:00+22ю3659100 0.0 1015452
12:00+18юв41277100 0.2 1014395
15:00+21ю6107497 1.0 1012939
18:00+19ю41296100 4.1 1010550
21:00+18юз2397100 5.6 101075
29 июля, чт
чт2900:00+17зюз369815 0.2 1010137
03:00+17зюз379854 0.2 1009155
06:00+17зюз399720 0.0 1009216
09:00+21з3581100 0.0 1009351
12:00+26зсз4654100 0.0 10091300
15:00+28зсз464142 0.0 10082437
18:00+26сз365457 0.0 1008754
21:00+20зсз3475100 0.0 100970
30 июля, пт
пт3000:00+18зсз238191 0.0 100949
03:00+17зсз238581 0.1 100967
06:00+17з22911 0.0 101064
09:00+23з236810 0.0 1009511
12:00+26юз34562 0.0 10091317
15:00+26зюз45618 1.4 10081169
18:00+23сз3770100 1.1 1008337
21:00+19юз227911 1.1 100813
31 июля, сб
сб3100:00+19ююз237595 0.0 100860
03:00+17юз3786100 0.0 1008107
06:00+16юз398159 0.0 1008199
09:00+21зюз3665100 0.0 1008337
12:00+26юз4749100 0.0 10081193
15:00+27зюз584789 0.0 10071619
18:00+23з486797 0.1 1007649
21:00+20ююз358513 0.1 100786